• In Netherlands
  • List of Countries
  • For 7 days
  • Water Temperature
  • Satellite Maps
  • Weather Map
  • Weather Widgets
  • user-avatar
    Login

    Hourly Weather Santiago del Estero

    Today, 21 February, Wednesday

    Time Temperature Precipitation Wind Pressure Humidity
    00:00 +29°C° 0.1 mm 3 mps 742 mmHg 38%
    01:00 +28°C° 0.1 mm 3 mps 743 mmHg 37%
    02:00 +28°C° 0.1 mm 3 mps 743 mmHg 36%
    03:00 +27°C° 0 mm 2 mps 743 mmHg 37%
    04:00 +26°C° 0 mm 2 mps 744 mmHg 37%
    05:00 +26°C° 0 mm 1 mps 744 mmHg 38%
    06:00 +26°C° 0 mm 1 mps 745 mmHg 36%
    07:00 +27°C° 0 mm 2 mps 745 mmHg 35%
    08:00 +28°C° 0 mm 2 mps 746 mmHg 34%
    09:00 +30°C° 0 mm 2 mps 746 mmHg 30%
    10:00 +31°C° 0 mm 2 mps 746 mmHg 26%
    11:00 +34°C° 0 mm 2 mps 746 mmHg 22%
    12:00 +35°C° 0 mm 2 mps 745 mmHg 22%
    13:00 +36°C° 0 mm 3 mps 744 mmHg 21%
    14:00 +37°C° 0 mm 3 mps 743 mmHg 21%
    15:00 +37°C° 0 mm 3 mps 742 mmHg 21%
    16:00 +37°C° 0 mm 3 mps 742 mmHg 22%
    17:00 +36°C° 0 mm 3 mps 741 mmHg 22%
    18:00 +34°C° 0 mm 2 mps 741 mmHg 26%
    19:00 +31°C° 0 mm 2 mps 742 mmHg 29%
    20:00 +28°C° 0 mm 2 mps 742 mmHg 33%
    21:00 +28°C° 0 mm 2 mps 742 mmHg 34%
    22:00 +27°C° 0 mm 2 mps 743 mmHg 34%
    23:00 +27°C° 0 mm 2 mps 743 mmHg 35%

    Tomorrow, 22 February, Thursday

    Time Temperature Precipitation Wind Pressure Humidity
    00:00 +26°C° 0 mm 2 mps 743 mmHg 37%
    01:00 +25°C° 0 mm 2 mps 743 mmHg 38%
    02:00 +24°C° 0 mm 2 mps 743 mmHg 40%
    03:00 +23°C° 0 mm 1 mps 743 mmHg 40%
    04:00 +23°C° 0 mm 1 mps 743 mmHg 41%
    05:00 +22°C° 0 mm 1 mps 743 mmHg 42%
    06:00 +24°C° 0 mm 1 mps 744 mmHg 39%
    07:00 +25°C° 0 mm 2 mps 744 mmHg 35%
    08:00 +27°C° 0 mm 2 mps 745 mmHg 32%
    09:00 +29°C° 0 mm 3 mps 745 mmHg 29%
    10:00 +33°C° 0 mm 3 mps 745 mmHg 25%
    11:00 +35°C° 0 mm 4 mps 745 mmHg 22%
    12:00 +36°C° 0 mm 4 mps 744 mmHg 21%
    13:00 +37°C° 0 mm 4 mps 743 mmHg 19%
    14:00 +38°C° 0 mm 4 mps 743 mmHg 18%
    15:00 +38°C° 0 mm 4 mps 742 mmHg 19%
    16:00 +37°C° 0 mm 4 mps 741 mmHg 19%
    17:00 +37°C° 0 mm 5 mps 741 mmHg 20%
    18:00 +35°C° 0 mm 4 mps 741 mmHg 24%
    19:00 +33°C° 0 mm 4 mps 741 mmHg 27%
    20:00 +29°C° 0 mm 4 mps 741 mmHg 31%
    21:00 +28°C° 0 mm 3 mps 742 mmHg 32%
    22:00 +27°C° 0 mm 3 mps 742 mmHg 33%
    23:00 +27°C° 0 mm 3 mps 742 mmHg 34%

    Day after tomorrow, 23 February, Friday

    Time Temperature Precipitation Wind Pressure Humidity
    00:00 +26°C° 0 mm 3 mps 742 mmHg 35%
    01:00 +25°C° 0 mm 2 mps 742 mmHg 37%
    02:00 +24°C° 0 mm 2 mps 742 mmHg 38%
    03:00 +24°C° 0 mm 2 mps 742 mmHg 39%
    04:00 +23°C° 0 mm 2 mps 742 mmHg 40%
    05:00 +23°C° 0 mm 2 mps 742 mmHg 41%
    06:00 +24°C° 0 mm 3 mps 742 mmHg 41%
    07:00 +25°C° 0 mm 4 mps 743 mmHg 41%
    08:00 +27°C° 0 mm 4 mps 743 mmHg 40%
    09:00 +29°C° 0 mm 5 mps 743 mmHg 36%
    10:00 +32°C° 0 mm 5 mps 743 mmHg 32%
    11:00 +34°C° 0 mm 6 mps 743 mmHg 27%
    12:00 +35°C° 0 mm 5 mps 743 mmHg 25%
    13:00 +36°C° 0 mm 5 mps 742 mmHg 24%
    14:00 +37°C° 0 mm 5 mps 741 mmHg 22%
    15:00 +37°C° 0 mm 5 mps 741 mmHg 22%
    16:00 +37°C° 0 mm 5 mps 740 mmHg 23%
    17:00 +37°C° 0 mm 4 mps 740 mmHg 23%
    18:00 +34°C° 0 mm 4 mps 740 mmHg 27%
    19:00 +32°C° 0 mm 4 mps 741 mmHg 31%
    20:00 +29°C° 0 mm 3 mps 741 mmHg 35%
    21:00 +28°C° 0 mm 3 mps 742 mmHg 36%
    22:00 +28°C° 0 mm 3 mps 742 mmHg 37%
    23:00 +27°C° 0 mm 3 mps 742 mmHg 39%

    24 February, Saturday

    Time Temperature Precipitation Wind Pressure Humidity
    00:00 +26°C° 0 mm 3 mps 742 mmHg 41%
    01:00 +26°C° 0 mm 3 mps 742 mmHg 42%
    02:00 +26°C° 0 mm 2 mps 742 mmHg 44%
    03:00 +25°C° 0 mm 2 mps 742 mmHg 48%
    04:00 +24°C° 0 mm 1 mps 742 mmHg 52%
    05:00 +23°C° 0 mm 1 mps 742 mmHg 55%
    06:00 +24°C° 0 mm 1 mps 743 mmHg 53%
    07:00 +26°C° 0 mm 2 mps 743 mmHg 51%
    08:00 +27°C° 0 mm 2 mps 744 mmHg 48%
    09:00 +29°C° 0 mm 2 mps 744 mmHg 44%
    10:00 +31°C° 0 mm 3 mps 744 mmHg 40%
    11:00 +34°C° 0 mm 3 mps 744 mmHg 36%
    12:00 +35°C° 0 mm 3 mps 743 mmHg 33%
    13:00 +36°C° 0 mm 3 mps 742 mmHg 30%
    14:00 +37°C° 0 mm 3 mps 741 mmHg 28%
    15:00 +37°C° 0 mm 3 mps 741 mmHg 28%
    16:00 +37°C° 0 mm 3 mps 740 mmHg 28%
    17:00 +37°C° 0 mm 3 mps 740 mmHg 28%
    18:00 +35°C° 0 mm 3 mps 740 mmHg 31%
    19:00 +33°C° 0 mm 3 mps 741 mmHg 35%
    20:00 +30°C° 0 mm 3 mps 741 mmHg 39%
    21:00 +30°C° 0 mm 3 mps 742 mmHg 39%
    22:00 +29°C° 0 mm 3 mps 742 mmHg 39%
    23:00 +29°C° 0 mm 3 mps 742 mmHg 40%

    25 February, Sunday

    Time Temperature Precipitation Wind Pressure Humidity
    00:00 +28°C° 0 mm 2 mps 742 mmHg 41%
    01:00 +27°C° 0 mm 2 mps 742 mmHg 43%
    02:00 +27°C° 0 mm 2 mps 742 mmHg 44%
    03:00 +26°C° 0.1 mm 2 mps 742 mmHg 47%
    04:00 +26°C° 0.1 mm 1 mps 742 mmHg 50%
    05:00 +25°C° 0.1 mm 1 mps 742 mmHg 53%
    06:00 +26°C° 0.1 mm 1 mps 742 mmHg 52%
    07:00 +27°C° 0.1 mm 2 mps 743 mmHg 50%
    08:00 +28°C° 0.1 mm 2 mps 743 mmHg 49%
    09:00 +30°C° 0.1 mm 2 mps 743 mmHg 45%
    10:00 +32°C° 0.1 mm 2 mps 743 mmHg 41%
    11:00 +35°C° 0.1 mm 2 mps 743 mmHg 36%
    12:00 +36°C° 0 mm 3 mps 742 mmHg 33%
    13:00 +37°C° 0 mm 3 mps 742 mmHg 30%
    14:00 +39°C° 0 mm 3 mps 741 mmHg 27%
    15:00 +38°C° 0 mm 3 mps 740 mmHg 28%
    16:00 +38°C° 0 mm 3 mps 740 mmHg 29%
    17:00 +37°C° 0 mm 3 mps 740 mmHg 31%
    18:00 +35°C° 0 mm 4 mps 740 mmHg 35%
    19:00 +34°C° 0 mm 4 mps 740 mmHg 40%
    20:00 +32°C° 0 mm 4 mps 741 mmHg 45%
    21:00 +30°C° 0.2 mm 3 mps 741 mmHg 51%
    22:00 +29°C° 0.2 mm 3 mps 741 mmHg 56%
    23:00 +27°C° 0.2 mm 3 mps 742 mmHg 61%

    26 February, Monday

    Time Temperature Precipitation Wind Pressure Humidity
    00:00 +27°C° 0.6 mm 2 mps 742 mmHg 67%
    01:00 +26°C° 0.6 mm 2 mps 741 mmHg 73%
    02:00 +25°C° 0.6 mm 2 mps 741 mmHg 79%
    03:00 +24°C° 0.4 mm 2 mps 741 mmHg 83%
    04:00 +24°C° 0.4 mm 2 mps 741 mmHg 86%
    05:00 +24°C° 0.4 mm 2 mps 741 mmHg 90%
    06:00 +25°C° 0 mm 2 mps 742 mmHg 85%
    07:00 +26°C° 0 mm 1 mps 742 mmHg 80%
    08:00 +27°C° 0 mm 1 mps 743 mmHg 75%
    09:00 +28°C° 0.8 mm 1 mps 743 mmHg 68%
    10:00 +30°C° 0.8 mm 2 mps 742 mmHg 61%
    11:00 +32°C° 0.8 mm 2 mps 742 mmHg 54%
    12:00 +34°C° 0 mm 2 mps 742 mmHg 48%
    13:00 +36°C° 0 mm 2 mps 741 mmHg 43%
    14:00 +37°C° 0 mm 2 mps 740 mmHg 38%
    15:00 +37°C° 0 mm 2 mps 740 mmHg 40%
    16:00 +36°C° 0 mm 2 mps 739 mmHg 42%
    17:00 +35°C° 0 mm 3 mps 739 mmHg 44%
    18:00 +34°C° 0 mm 3 mps 739 mmHg 49%
    19:00 +33°C° 0 mm 3 mps 739 mmHg 53%
    20:00 +30°C° 0 mm 3 mps 740 mmHg 57%
    21:00 +29°C° 0.6 mm 3 mps 740 mmHg 61%
    22:00 +28°C° 0.6 mm 3 mps 740 mmHg 66%
    23:00 +27°C° 0.6 mm 4 mps 741 mmHg 70%
    Show more